[[{"header":{"parameterUnit":"m.s-1","parameterCategory":2,"la1":30.2991,"la2":30.254,"lo1":-89.0895,"lo2":-89.0444,"dy":0.0017,"dx":0.0017,"nx":28,"ny":28,"refTime":"2024-05-13T09:00:00:Z","depth":"0","parameterNumber":2,"parameterNumberName":"U-component_of_CURRENTS"},"data":[0,0,0,0,0,0,0,0,0,0,0,0,0,0,0,0,0,0,0,0,0,0,0,0,0,0,0,0,0,0,0,0,0,0,0,0,0,0,0,0,0,0,0,0,0,0,0,0,0,0,0,0,0,0,0,0,0,0,0.2164,0.2163,0,0.2181,0.2183,0.2185,0.2317,0.2319,0.232,0.2321,0.2387,0.2388,0.2388,0,0,0,0,0,0,0,0,0,0,0,0,0,0.2237,0.2237,0.2164,0.2163,0.2161,0.2181,0.2183,0.2185,0.2317,0.2319,0.232,0.2322,0.2387,0.2387,0.2388,0,0,0,0,0,0,0,0,0,0,0,0,0,0.2244,0.2237,0.2165,0.2214,0.2217,0.2181,0.2183,0.2186,0.2317,0.2319,0.2321,0.2323,0.2387,0.2387,0.2388,0.235,0,0,0.239,0.239,0,0,0,0,0,0,0,0,0.2244,0.2244,0.2208,0.221,0.2214,0.2231,0.2232,0.2236,0.2316,0.23,0.2321,0.2324,0.2325,0.2331,0.2357,0.2353,0.2356,0.239,0.2391,0.2391,0.2391,0,0,0,0,0,0,0,0.2243,0.2244,0.2192,0.2206,0.2209,0.2231,0.2237,0.2235,0.2317,0.2302,0.2306,0.2275,0.233,0.2357,0.236,0.2357,0.239,0.2391,0.2391,0.2391,0.2342,0.234,0,0,0,0,0,0,0.2198,0.2243,0.2191,0.219,0.2211,0.2226,0.2234,0.224,0.2316,0.2324,0.2273,0.2281,0.2354,0.2359,0.2362,0.2315,0.2391,0.2392,0.2392,0.2344,0.2342,0.234,0,0,0,0,0,0,0.22,0.2195,0.219,0.2199,0.2197,0.2221,0.2228,0.2239,0.226,0.229,0.2304,0.2279,0.2356,0.2361,0.2379,0.2319,0.2392,0.2392,0.2346,0.2343,0.2341,0.2224,0,0,0,0,0,0,0.2203,0.2197,0.2193,0.2197,0.2194,0.2151,0.2224,0.2237,0.2227,0.2238,0.2298,0.2308,0.2358,0.2377,0.2379,0.2321,0.2393,0.2348,0.2345,0.2342,0.223,0.2218,0.2208,0,0,0,0,0,0.2207,0.2197,0.2195,0.2187,0.2188,0.2147,0.215,0.2187,0.2225,0.222,0.2284,0.2306,0.2357,0.2377,0.238,0.232,0.2349,0.2346,0.2342,0.2235,0.2221,0.2208,0,0,0,0,0,0,0.223,0.2206,0.2206,0.2191,0.2153,0.2161,0.2158,0.2167,0.2215,0.2232,0.2296,0.2309,0.2303,0.2325,0.2345,0.2297,0.235,0.2346,0.2268,0.2254,0.2243,0.2201,0.2394,0,0,0,0,0,0.2221,0.2213,0.2175,0.2155,0.2141,0.2143,0.2132,0.2137,0.216,0.2186,0.2228,0.2266,0.2285,0.2284,0.2313,0.2277,0.2269,0.2237,0.2226,0.2216,0.2183,0.2151,0.2133,0.2327,0.2327,0.2327,0,0,0.2214,0.22,0.2192,0.2157,0.2152,0.211,0.215,0.2112,0.2086,0.2178,0.2193,0.2233,0.2273,0.2259,0.2252,0.2268,0.2152,0.2211,0.2202,0.2175,0.2145,0.2126,0.2109,0.2324,0.2325,0.2325,0,0,0.2195,0.2193,0.2179,0.2141,0.2087,0.2075,0.2049,0.204,0.2057,0.2045,0.2113,0.2115,0.2148,0.2159,0.2169,0.2099,0.2106,0.21,0.199,0.1959,0.1942,0.1927,0.1868,0.1849,0.2079,0.2079,0.2078,0,0.2189,0.2168,0.216,0.2125,0.2076,0.2052,0.1998,0.1997,0.1993,0.1977,0.2035,0.2057,0.2095,0.205,0.2038,0.2067,0.2048,0.2041,0.1941,0.1927,0.1914,0.1858,0.1838,0.2072,0.2073,0.2074,0.2074,0,0.2154,0.2125,0.2108,0.2061,0.2006,0.1951,0.1904,0.1874,0.1881,0.1868,0.1842,0.1905,0.1909,0.1911,0.1957,0.1865,0.188,0.1944,0.1972,0.1887,0.1833,0.1815,0.2064,0.2066,0.2068,0.2069,0,0,0.2175,0.2103,0.2095,0.2042,0.196,0.19,0.1838,0.1757,0.1708,0.1713,0.1668,0.1684,0.1703,0.1714,0.1758,0.1718,0.1613,0.1775,0.1776,0.1706,0.1512,0.1461,0.1437,0.1664,0.166,0.1658,0.1503,0,0.2151,0.2081,0.2037,0.1925,0.1875,0.18,0.1732,0.1646,0.1624,0.1584,0.1589,0.1586,0.1633,0.1643,0.16,0.1646,0.1563,0.1647,0.1613,0.1611,0.1568,0.1413,0.1389,0.1244,0.1486,0.1483,0.1481,0,0.2137,0.2083,0.1997,0.1844,0.1811,0.1731,0.1588,0.1522,0.1444,0.1434,0.14,0.1437,0.1388,0.1466,0.1401,0.1456,0.1442,0.1457,0.1453,0.1428,0.1524,0.1374,0.1202,0.1189,0.1453,0.1455,0.1457,0,0.2164,0.204,0.1968,0.192,0.1762,0.1686,0.1589,0.1478,0.1409,0.1352,0.1329,0.1283,0.1299,0.1266,0.1302,0.1344,0.1237,0.1315,0.1223,0.122,0.12,0.12,0.1,0.1202,0.1203,0.1203,0.1204,0,0.216,0.2091,0.1971,0.1925,0.1774,0.1672,0.1519,0.1438,0.1339,0.1253,0.1263,0.123,0.1254,0.1225,0.123,0.1157,0.1171,0.1139,0.1155,0.1157,0.1155,0.1149,0.1177,0.1197,0.1199,0.12,0.1201,0,0.22,0.2142,0.203,0.1864,0.1792,0.1685,0.1461,0.1346,0.1296,0.1203,0.1192,0.1171,0.1135,0.113,0.1095,0.1069,0.0978,0.0982,0.0963,0.0977,0.0869,0.0894,0.0667,0.0648,0.0818,0.0816,0.0814,0,0.2211,0.2177,0.1996,0.1879,0.1793,0.1615,0.1462,0.1337,0.1242,0.1171,0.1134,0.1096,0.1067,0.0973,0.0926,0.0845,0.0866,0.0744,0.0802,0.0782,0.0824,0.083,0.0834,0.0725,0.0722,0.072,0.0718,0,0.2205,0.2163,0.2051,0.1808,0.1636,0.1465,0.1282,0.123,0.1111,0.1078,0.1041,0.1031,0.0951,0.088,0.0769,0.0721,0.0708,0.0692,0.0683,0.0697,0.0679,0.0699,0.0902,0.0698,0.07,0.0702,0.0703,0.0704,0.2179,0.2078,0.1895,0.164,0.1469,0.1306,0.1197,0.1085,0.0989,0.0948,0.097,0.0944,0.0872,0.073,0.0655,0.0502,0.0548,0.0477,0.0493,0.049,0.0491,0.0616,0.044,0.0441,0.0441,0.0442,0.0442,0,0.2064,0.19,0.1684,0.1406,0.1215,0.1165,0.1027,0.0962,0.0902,0.0893,0.088,0.0811,0.0708,0.0609,0.0435,0.0345,0.0337,0.0308,0.0334,0.034,0.045,0.0471,0.0281,0.0281,0.0281,0.0281,0.0281,0.0281,0.1973,0.1726,0.1566,0.118,0.1031,0.0852,0.0815,0.08,0.079,0.0749,0.0717,0.0712,0.0633,0.0461,0.0296,0.0252,0.0236,0.0187,0.02,0.0327,0.0346,0.0365,0.0388,0.0184,0.0184,0.0088,0.0088,0.0087]},{"header":{"parameterUnit":"m.s-1","parameterCategory":2,"la1":30.2991,"la2":30.254,"lo1":-89.0895,"lo2":-89.0444,"dy":0.0017,"dx":0.0017,"nx":28,"ny":28,"refTime":"2024-05-13T09:00:00:Z","depth":"0","parameterNumber":3,"parameterNumberName":"V-component_of_CURRENTS"},"data":[0,0,0,0,0,0,0,0,0,0,0,0,0,0,0,0,0,0,0,0,0,0,0,0,0,0,0,0,0,0,0,0,0,0,0,0,0,0,0,0,0,0,0,0,0,0,0,0,0,0,0,0,0,0,0,0,0,0,-0.0467,-0.0464,0,-0.0329,-0.0328,-0.0328,-0.0342,-0.0343,-0.0344,-0.0345,-0.0397,-0.0398,-0.0398,0,0,0,0,0,0,0,0,0,0,0,0,0,-0.0685,-0.0683,-0.0467,-0.0464,-0.0461,-0.0329,-0.0328,-0.0328,-0.0342,-0.0343,-0.0344,-0.0345,-0.0397,-0.0398,-0.0398,0,0,0,0,0,0,0,0,0,0,0,0,0,-0.0587,-0.0682,-0.0468,-0.0442,-0.0437,-0.0329,-0.0328,-0.0328,-0.0342,-0.0343,-0.0344,-0.0346,-0.0397,-0.0398,-0.0398,-0.0377,0,0,-0.0401,-0.0401,0,0,0,0,0,0,0,0,-0.0592,-0.0581,-0.0449,-0.0443,-0.0438,-0.0342,-0.0423,-0.0349,-0.0341,-0.0393,-0.0345,-0.0346,-0.0386,-0.0388,-0.0376,-0.038,-0.0382,-0.0401,-0.0402,-0.0402,-0.0402,0,0,0,0,0,0,0,-0.0599,-0.0586,-0.0427,-0.0445,-0.0438,-0.0416,-0.0406,-0.0409,-0.0398,-0.0388,-0.0386,-0.0347,-0.0387,-0.0375,-0.0378,-0.0383,-0.0401,-0.0402,-0.0402,-0.0403,-0.0398,-0.0398,0,0,0,0,0,0,-0.0589,-0.0592,-0.0431,-0.0421,-0.0504,-0.041,-0.0399,-0.0383,-0.0394,-0.0391,-0.0346,-0.0348,-0.0373,-0.0377,-0.038,-0.0354,-0.0402,-0.0403,-0.0403,-0.0399,-0.0398,-0.0397,0,0,0,0,0,0,-0.0595,-0.0577,-0.0436,-0.0492,-0.047,-0.0404,-0.0386,-0.0379,-0.0359,-0.0357,-0.0362,-0.0331,-0.0374,-0.0379,-0.0385,-0.0357,-0.0403,-0.0404,-0.04,-0.0399,-0.0398,-0.0305,0,0,0,0,0,0,-0.0602,-0.0581,-0.0569,-0.0491,-0.0466,-0.0359,-0.0383,-0.0375,-0.0327,-0.0329,-0.0345,-0.0352,-0.0376,-0.0383,-0.0386,-0.0359,-0.0405,-0.04,-0.0399,-0.0398,-0.0309,-0.0301,-0.0294,0,0,0,0,0,-0.0611,-0.0586,-0.057,-0.0549,-0.0452,-0.0355,-0.0342,-0.0309,-0.0325,-0.0302,-0.0329,-0.0351,-0.0378,-0.0383,-0.0386,-0.0359,-0.0401,-0.04,-0.0398,-0.0312,-0.0302,-0.0294,0,0,0,0,0,0,-0.0673,-0.0581,-0.0563,-0.0512,-0.043,-0.0352,-0.0325,-0.0298,-0.0296,-0.031,-0.0339,-0.0346,-0.0341,-0.0365,-0.0371,-0.0357,-0.0394,-0.0393,-0.0328,-0.0319,-0.0312,-0.029,-0.0405,0,0,0,0,0,-0.0676,-0.0639,-0.054,-0.0495,-0.0461,-0.0394,-0.0352,-0.0315,-0.0289,-0.0289,-0.0305,-0.0328,-0.0335,-0.034,-0.0355,-0.0341,-0.0346,-0.0329,-0.0322,-0.0315,-0.0301,-0.0279,-0.0267,-0.0393,-0.0393,-0.0393,0,0,-0.0681,-0.0626,-0.0602,-0.0504,-0.0456,-0.038,-0.0377,-0.0299,-0.0253,-0.0297,-0.0283,-0.0301,-0.0328,-0.0317,-0.0317,-0.0334,-0.0283,-0.0314,-0.0307,-0.0297,-0.0276,-0.0264,-0.0253,-0.0392,-0.0392,-0.0392,0,0,-0.0661,-0.0633,-0.059,-0.0515,-0.0409,-0.0364,-0.0336,-0.0256,-0.025,-0.0214,-0.0242,-0.0238,-0.0259,-0.0257,-0.0264,-0.0223,-0.0246,-0.0237,-0.0177,-0.0155,-0.0144,-0.0134,-0.0123,-0.0113,-0.0232,-0.0232,-0.0232,0,-0.0673,-0.0594,-0.0557,-0.0481,-0.0411,-0.0357,-0.0276,-0.025,-0.0184,-0.0181,-0.0206,-0.0207,-0.0224,-0.0195,-0.0182,-0.0201,-0.0203,-0.0204,-0.0143,-0.0133,-0.0125,-0.0115,-0.0105,-0.0227,-0.0228,-0.0228,-0.0229,0,-0.0602,-0.053,-0.0496,-0.0394,-0.0329,-0.0239,-0.0178,-0.0153,-0.0148,-0.0117,-0.01,-0.0116,-0.0116,-0.0116,-0.0136,-0.0082,-0.0106,-0.0134,-0.0158,-0.0106,-0.01,-0.0091,-0.022,-0.0222,-0.0223,-0.0225,0,0,-0.0638,-0.0479,-0.0461,-0.0389,-0.0263,-0.0198,-0.0151,-0.0079,-0.006,-0.003,-0.0002,0.0005,-0.0004,-0.0011,-0.0026,0.0001,0.0064,-0.0035,-0.0036,-0.001,0.0108,0.0098,0.0106,0.0047,0.0049,0.005,0.0089,0,-0.0583,-0.0429,-0.0372,-0.023,-0.014,-0.009,-0.0057,0.0002,0.0014,0.0038,0.0042,0.0055,0.0035,0.0036,0.0067,0.0057,0.0091,0.0056,0.0042,0.0042,0.0038,0.0118,0.0135,0.0172,0.0097,0.0099,0.01,0,-0.0525,-0.0417,-0.0272,-0.0136,-0.0104,-0.0035,0.0028,0.007,0.0099,0.0098,0.0125,0.0119,0.0167,0.0132,0.0175,0.0151,0.0145,0.0141,0.0141,0.0109,0.0049,0.0106,0.019,0.0196,0.0113,0.0112,0.0111,0,-0.0538,-0.0354,-0.0241,-0.0175,-0.0029,0.0004,0.0052,0.0089,0.0108,0.0142,0.016,0.0196,0.0213,0.0228,0.0218,0.02,0.0256,0.022,0.0212,0.021,0.0211,0.0207,0.0314,0.0265,0.0265,0.0265,0.0265,0,-0.0489,-0.0393,-0.0233,-0.0157,-0.005,0.0019,0.0077,0.0112,0.0146,0.0185,0.0194,0.0231,0.0239,0.0263,0.0251,0.0266,0.0281,0.025,0.0234,0.0242,0.024,0.023,0.021,0.0266,0.0266,0.0266,0.0265,0,-0.0506,-0.0402,-0.0247,-0.0085,-0.0043,0.003,0.0115,0.0141,0.0165,0.022,0.0236,0.0273,0.0301,0.0301,0.0319,0.0306,0.0321,0.0308,0.0313,0.0298,0.0295,0.0277,0.0333,0.0363,0.0322,0.0323,0.0323,0,-0.0493,-0.0415,-0.0205,-0.0125,-0.0043,0.0053,0.0098,0.0149,0.0185,0.0248,0.0284,0.0322,0.0355,0.0375,0.0361,0.0355,0.0338,0.0357,0.0335,0.033,0.0298,0.0271,0.0291,0.037,0.0371,0.0371,0.0372,0,-0.0448,-0.038,-0.0237,-0.0092,0.0003,0.009,0.017,0.0206,0.0253,0.0298,0.0362,0.039,0.0409,0.0417,0.0397,0.0389,0.0371,0.0366,0.0373,0.0371,0.0339,0.0347,0.0295,0.0376,0.0375,0.0375,0.0375,0.0375,-0.0407,-0.0299,-0.0141,-0.0013,0.0073,0.0136,0.019,0.0254,0.0317,0.0393,0.0412,0.0458,0.0457,0.0438,0.0429,0.042,0.04,0.0412,0.0398,0.0377,0.0397,0.0352,0.04,0.04,0.04,0.04,0.04,0,-0.0303,-0.0204,-0.0089,0.0075,0.0126,0.0155,0.0242,0.0281,0.0357,0.0424,0.047,0.05,0.0499,0.0483,0.0459,0.0454,0.0458,0.0448,0.0432,0.0458,0.0439,0.0433,0.0477,0.0477,0.0477,0.0477,0.0477,0.0477,-0.0237,-0.0086,-0.0032,0.009,0.0154,0.0222,0.0265,0.033,0.0388,0.0463,0.0499,0.0524,0.0525,0.0443,0.0447,0.0462,0.0481,0.0456,0.0471,0.0459,0.0455,0.0451,0.0444,0.049,0.0489,0.0514,0.0514,0.0514]}],[{"header":{"parameterUnit":"m.s-1","parameterCategory":2,"la1":30.2991,"la2":30.254,"lo1":-89.0895,"lo2":-89.0444,"dy":0.0017,"dx":0.0017,"nx":28,"ny":28,"refTime":"2024-05-13T09:00:00:Z","depth":"2","parameterNumber":2,"parameterNumberName":"U-component_of_CURRENTS"},"data":[0,0,0,0,0,0,0,0,0,0,0,0,0,0,0,0,0,0,0,0,0,0,0,0,0,0,0,0,0,0,0,0,0,0,0,0,0,0,0,0,0,0,0,0,0,0,0,0,0,0,0,0,0,0,0,0,0,0,0.0815,0.0817,0,0.0917,0.0917,0.0918,0.1046,0.1049,0.1052,0.1054,0.1278,0.1281,0.1284,0,0,0,0,0,0,0,0,0,0,0,0,0,0.0717,0.0717,0.0815,0.0817,0.0819,0.0917,0.0917,0.0918,0.1046,0.1049,0.1052,0.1055,0.1277,0.1281,0.1285,0,0,0,0,0,0,0,0,0,0,0,0,0,0.0775,0.0717,0.0815,0.09,0.0909,0.0917,0.0917,0.0918,0.1045,0.1049,0.1053,0.1057,0.1275,0.128,0.1285,0.1234,0,0,0.1301,0.1303,0,0,0,0,0,0,0,0,0.0772,0.0778,0.0886,0.0894,0.0905,0.098,0.0965,0.1033,0.1044,0.0985,0.1054,0.1059,0.1191,0.1204,0.1201,0.1244,0.1254,0.1301,0.1304,0.1306,0.1308,0,0,0,0,0,0,0,0.0768,0.0774,0.0848,0.0888,0.0899,0.0929,0.0941,0.0977,0.106,0.0991,0.1002,0.1024,0.1197,0.1195,0.1207,0.1257,0.1301,0.1306,0.1309,0.1311,0.1451,0.1452,0,0,0,0,0,0,0.0767,0.077,0.0845,0.0851,0.0856,0.0928,0.0941,0.0945,0.1057,0.108,0.1021,0.103,0.1185,0.1201,0.1216,0.1311,0.1306,0.1311,0.1314,0.145,0.1451,0.1452,0,0,0,0,0,0,0.0764,0.0771,0.0841,0.0821,0.0833,0.0926,0.0929,0.0945,0.0972,0.108,0.1105,0.1037,0.1188,0.1209,0.1292,0.1316,0.1313,0.1318,0.145,0.1451,0.1452,0.1406,0,0,0,0,0,0,0.076,0.0769,0.0759,0.082,0.0834,0.0884,0.0926,0.0944,0.0982,0.0996,0.1101,0.1124,0.1193,0.1284,0.1297,0.1323,0.1322,0.1449,0.145,0.1451,0.1406,0.1405,0.1404,0,0,0,0,0,0.0755,0.0743,0.0757,0.0767,0.0821,0.0885,0.0895,0.097,0.0979,0.1003,0.1074,0.1123,0.1302,0.1288,0.1303,0.1331,0.1448,0.145,0.1451,0.1407,0.1405,0.1404,0,0,0,0,0,0,0.0718,0.0756,0.0774,0.0779,0.0843,0.0911,0.0957,0.096,0.1021,0.1069,0.1121,0.115,0.1228,0.1278,0.1259,0.1376,0.1386,0.139,0.1347,0.1346,0.1345,0.1292,0.1326,0,0,0,0,0,0.0694,0.0698,0.0752,0.0772,0.0813,0.0869,0.0897,0.0955,0.1022,0.1053,0.1107,0.1183,0.1233,0.1291,0.1351,0.1405,0.1389,0.1437,0.1435,0.1434,0.1402,0.1391,0.1384,0.1457,0.1457,0.1457,0,0,0.0698,0.0717,0.0725,0.0764,0.0836,0.0883,0.09,0.0991,0.1005,0.1068,0.112,0.1174,0.1242,0.1318,0.1358,0.1374,0.1407,0.1436,0.1434,0.1403,0.1391,0.1384,0.1377,0.1458,0.1458,0.1458,0,0,0.0709,0.073,0.0737,0.08,0.09,0.0926,0.0944,0.102,0.1042,0.1077,0.1133,0.1182,0.1263,0.1316,0.1345,0.136,0.1386,0.1411,0.1381,0.1371,0.1363,0.1357,0.1323,0.1313,0.1428,0.1428,0.1428,0,0.0713,0.0733,0.0758,0.0811,0.0872,0.0937,0.099,0.1004,0.1081,0.108,0.1111,0.118,0.1243,0.129,0.1313,0.1353,0.1352,0.1381,0.1365,0.1358,0.1352,0.1319,0.1309,0.1426,0.1426,0.1426,0.1427,0,0.0758,0.0783,0.0829,0.0888,0.0925,0.1029,0.1059,0.1078,0.1086,0.1085,0.1118,0.1179,0.1218,0.1255,0.1288,0.1298,0.1311,0.1346,0.1357,0.1341,0.1308,0.1299,0.1423,0.1424,0.1424,0.1425,0,0,0.0755,0.0835,0.0853,0.0878,0.1003,0.1024,0.1057,0.1072,0.1056,0.11,0.1068,0.1134,0.1153,0.1185,0.1245,0.1243,0.1197,0.1284,0.1285,0.1228,0.1164,0.1103,0.1087,0.1246,0.1244,0.1243,0.1155,0,0.0806,0.0867,0.0895,0.0958,0.1005,0.1068,0.106,0.1074,0.1077,0.1061,0.1085,0.11,0.1133,0.1168,0.1163,0.1201,0.1172,0.1216,0.1206,0.1204,0.1134,0.1073,0.1033,0.0945,0.1146,0.1144,0.1143,0,0.0841,0.0871,0.0948,0.0955,0.0983,0.1017,0.1025,0.1026,0.1022,0.1023,0.1039,0.106,0.1072,0.1096,0.1089,0.1127,0.1121,0.1129,0.1127,0.107,0.1124,0.0998,0.0921,0.1127,0.1129,0.113,0.1131,0,0.0808,0.0878,0.0925,0.0977,0.1019,0.1031,0.1027,0.1028,0.1012,0.1013,0.1014,0.102,0.1038,0.1027,0.1039,0.1072,0.1009,0.1061,0.098,0.0976,0.0932,0.0926,0.1,0.1,0.1001,0.1001,0.1001,0,0.0845,0.0874,0.092,0.0972,0.0967,0.1,0.0993,0.0982,0.0993,0.0977,0.1002,0.1003,0.1023,0.1005,0.1005,0.0948,0.0976,0.0927,0.0937,0.0916,0.091,0.1072,0.1081,0.0998,0.0998,0.0999,0.0999,0,0.0824,0.0885,0.0916,0.0964,0.097,0.0962,0.0971,0.0956,0.0975,0.0966,0.0971,0.0982,0.0958,0.0947,0.0927,0.09,0.0861,0.083,0.0787,0.0791,0.0839,0.0848,0.0714,0.0711,0.0708,0.0706,0.0704,0,0.0827,0.0857,0.09,0.0907,0.0951,0.0949,0.0949,0.0952,0.0952,0.0954,0.095,0.093,0.0913,0.0836,0.0787,0.072,0.0775,0.0623,0.0655,0.078,0.0804,0.0817,0.0829,0.0585,0.0582,0.058,0.0578,0,0.0836,0.087,0.0906,0.0896,0.0913,0.0897,0.0905,0.0901,0.0911,0.0909,0.0903,0.0891,0.082,0.0737,0.0639,0.0598,0.0631,0.0573,0.071,0.0664,0.0651,0.0677,0.0694,0.0558,0.056,0.0562,0.0563,0.0564,0.0861,0.0858,0.0897,0.0877,0.0876,0.0861,0.0837,0.0853,0.084,0.0829,0.0846,0.0799,0.0756,0.059,0.0514,0.0428,0.0485,0.0453,0.0463,0.0475,0.0476,0.0459,0.0329,0.0329,0.033,0.033,0.0331,0,0.087,0.0879,0.0854,0.0841,0.0812,0.0818,0.0811,0.079,0.0771,0.0766,0.0751,0.064,0.0554,0.0494,0.0347,0.0285,0.0309,0.0245,0.0309,0.0328,0.0345,0.0343,0.0159,0.0158,0.0158,0.0157,0,0,0.0893,0.088,0.0836,0.0794,0.0774,0.0733,0.0723,0.07,0.0683,0.0641,0.06,0.0604,0.0546,0.0403,0.0327,0.0237,0.029,0.0203,0.0346,0.0448,0.0465,0.0465,0.0482,0,0,0,0,0]},{"header":{"parameterUnit":"m.s-1","parameterCategory":2,"la1":30.2991,"la2":30.254,"lo1":-89.0895,"lo2":-89.0444,"dy":0.0017,"dx":0.0017,"nx":28,"ny":28,"refTime":"2024-05-13T09:00:00:Z","depth":"2","parameterNumber":3,"parameterNumberName":"V-component_of_CURRENTS"},"data":[0,0,0,0,0,0,0,0,0,0,0,0,0,0,0,0,0,0,0,0,0,0,0,0,0,0,0,0,0,0,0,0,0,0,0,0,0,0,0,0,0,0,0,0,0,0,0,0,0,0,0,0,0,0,0,0,0,0,0.0541,0.0541,0,0.0578,0.0579,0.058,0.058,0.0579,0.0578,0.0577,0.0411,0.0408,0.0405,0,0,0,0,0,0,0,0,0,0,0,0,0,0.0518,0.0519,0.0541,0.0541,0.0541,0.0578,0.0579,0.058,0.058,0.0579,0.0578,0.0577,0.0412,0.0408,0.0404,0,0,0,0,0,0,0,0,0,0,0,0,0,0.0545,0.0519,0.0541,0.0541,0.0541,0.0577,0.0579,0.058,0.0581,0.0579,0.0577,0.0576,0.0414,0.0409,0.0404,0.0404,0,0,0.0388,0.0386,0,0,0,0,0,0,0,0,0.0543,0.0547,0.0541,0.0541,0.0541,0.0567,0.051,0.0509,0.0581,0.0573,0.0577,0.0575,0.0441,0.0434,0.0457,0.0396,0.0389,0.0388,0.0384,0.0382,0.0381,0,0,0,0,0,0,0,0.0541,0.0545,0.0562,0.0541,0.0541,0.0554,0.0556,0.0511,0.0517,0.0573,0.0572,0.0566,0.0441,0.0462,0.0452,0.0387,0.0388,0.0383,0.038,0.0378,0.0283,0.0283,0,0,0,0,0,0,0.0523,0.0543,0.0561,0.0563,0.0531,0.0555,0.0558,0.0566,0.0522,0.0513,0.0567,0.0565,0.0472,0.0458,0.0446,0.0411,0.0382,0.0378,0.0375,0.0282,0.0283,0.0284,0,0,0,0,0,0,0.0523,0.0525,0.056,0.0548,0.0552,0.0556,0.0565,0.0567,0.0582,0.0518,0.0507,0.0578,0.047,0.0453,0.0418,0.0405,0.0375,0.0371,0.0282,0.0283,0.0283,0.036,0,0,0,0,0,0,0.0522,0.0525,0.0542,0.0547,0.0552,0.0571,0.0566,0.0569,0.0578,0.0577,0.0523,0.0508,0.0467,0.0426,0.0413,0.0397,0.0367,0.0281,0.0282,0.0283,0.0357,0.0363,0.0369,0,0,0,0,0,0.0522,0.0542,0.0543,0.0545,0.0569,0.0571,0.0576,0.0577,0.058,0.0587,0.0566,0.0509,0.0422,0.0424,0.0407,0.039,0.0281,0.0282,0.0283,0.0354,0.0362,0.0369,0,0,0,0,0,0,0.0528,0.0543,0.0544,0.0565,0.0562,0.0568,0.0557,0.0582,0.0581,0.0554,0.0525,0.0508,0.0472,0.0427,0.043,0.0367,0.0338,0.0336,0.0397,0.0404,0.041,0.0403,0.0362,0,0,0,0,0,0.0539,0.0566,0.0562,0.0577,0.0554,0.0562,0.0568,0.0565,0.0556,0.0555,0.0533,0.0493,0.0469,0.0435,0.0399,0.0364,0.0342,0.034,0.0347,0.0352,0.0336,0.0337,0.0342,0.0288,0.0288,0.0288,0,0,0.0537,0.0555,0.0564,0.0582,0.0559,0.0554,0.0561,0.0538,0.0558,0.0529,0.0532,0.0512,0.0469,0.0441,0.0418,0.0396,0.0358,0.0354,0.0359,0.0339,0.0339,0.0344,0.0349,0.0289,0.0288,0.0288,0,0,0.055,0.0548,0.0569,0.0556,0.0532,0.0536,0.0531,0.0528,0.0535,0.0548,0.0533,0.0524,0.0479,0.0462,0.0446,0.0463,0.04,0.043,0.0439,0.0442,0.0446,0.045,0.044,0.0442,0.0422,0.0422,0.0422,0,0.0552,0.0573,0.0571,0.0568,0.0547,0.0528,0.0517,0.0532,0.054,0.0538,0.0541,0.0525,0.0498,0.048,0.0491,0.0475,0.0455,0.0419,0.0451,0.0454,0.0456,0.0445,0.0446,0.0426,0.0426,0.0425,0.0425,0,0.0561,0.0572,0.0552,0.0558,0.0552,0.0514,0.0509,0.051,0.052,0.0545,0.0538,0.0538,0.0523,0.052,0.0511,0.0503,0.0477,0.0472,0.0436,0.0467,0.0452,0.0453,0.0432,0.043,0.0429,0.0428,0,0,0.0576,0.0569,0.0561,0.0557,0.0524,0.052,0.0513,0.0513,0.0516,0.0535,0.0557,0.0554,0.0549,0.0532,0.052,0.0523,0.0547,0.0497,0.0495,0.0492,0.0533,0.0528,0.0527,0.0541,0.0541,0.0541,0.0521,0,0.0572,0.0583,0.0579,0.0569,0.0551,0.0513,0.0521,0.0521,0.0528,0.0546,0.0547,0.0559,0.0554,0.055,0.0555,0.055,0.0547,0.0552,0.0497,0.0495,0.0492,0.0528,0.052,0.0502,0.0521,0.0521,0.0521,0,0.0582,0.059,0.0579,0.0572,0.0551,0.0548,0.0519,0.0528,0.0529,0.0533,0.0535,0.0544,0.0553,0.0557,0.0552,0.0549,0.0537,0.0537,0.0536,0.0498,0.049,0.047,0.05,0.052,0.052,0.052,0.052,0,0.0604,0.0596,0.0593,0.0574,0.0558,0.0539,0.0528,0.0517,0.0515,0.0524,0.0531,0.0537,0.0551,0.0544,0.0548,0.0544,0.0545,0.0543,0.0523,0.0522,0.0486,0.0482,0.0533,0.0533,0.0533,0.0533,0.0533,0,0.0611,0.0602,0.0597,0.0581,0.0567,0.0551,0.0528,0.0519,0.051,0.0514,0.0524,0.0536,0.0548,0.0555,0.0546,0.0537,0.0542,0.0523,0.0519,0.0514,0.0512,0.0498,0.0494,0.0532,0.0532,0.0532,0.0533,0,0.0631,0.0618,0.0615,0.0591,0.0576,0.0567,0.0522,0.0507,0.0503,0.0512,0.0518,0.0537,0.0547,0.055,0.055,0.0538,0.0531,0.0519,0.0508,0.0503,0.0502,0.0502,0.0495,0.0495,0.0495,0.0495,0.0495,0,0.0642,0.0643,0.0625,0.0598,0.0573,0.0546,0.0515,0.0503,0.0496,0.0515,0.0527,0.0543,0.056,0.0555,0.0544,0.0525,0.052,0.0492,0.0491,0.0503,0.05,0.05,0.0501,0.0475,0.0475,0.0474,0.0474,0,0.0649,0.0638,0.0626,0.0579,0.0542,0.0523,0.0492,0.0502,0.0499,0.0519,0.0549,0.0568,0.0567,0.0556,0.0528,0.0514,0.0499,0.0485,0.0505,0.0489,0.0483,0.048,0.0481,0.0472,0.0472,0.0472,0.0472,0.0472,0.0638,0.0627,0.0591,0.0537,0.0511,0.0495,0.0492,0.0491,0.0508,0.055,0.0564,0.0585,0.057,0.0539,0.0502,0.0466,0.0488,0.0465,0.0466,0.0467,0.0472,0.0466,0.0452,0.0452,0.0452,0.0452,0.0452,0,0.0609,0.0575,0.0532,0.0482,0.0452,0.0448,0.0462,0.0478,0.0521,0.0559,0.0587,0.0557,0.0542,0.0511,0.0459,0.0433,0.0429,0.041,0.041,0.0414,0.0417,0.0419,0.0385,0.0384,0.0384,0.0383,0,0,0.0572,0.051,0.0473,0.0406,0.0394,0.039,0.0416,0.0472,0.0514,0.0557,0.0569,0.0594,0.0562,0.0499,0.046,0.0419,0.042,0.0408,0.0471,0.0481,0.0483,0.0461,0.047,0,0,0,0,0]}],[{"header":{"parameterUnit":"m.s-1","parameterCategory":2,"la1":30.2991,"la2":30.254,"lo1":-89.0895,"lo2":-89.0444,"dy":0.0017,"dx":0.0017,"nx":28,"ny":28,"refTime":"2024-05-13T09:00:00:Z","depth":"4","parameterNumber":2,"parameterNumberName":"U-component_of_CURRENTS"},"data":[0,0,0,0,0,0,0,0,0,0,0,0,0,0,0,0,0,0,0,0,0,0,0,0,0,0,0,0,0,0,0,0,0,0,0,0,0,0,0,0,0,0,0,0,0,0,0,0,0,0,0,0,0,0,0,0,0,0,0.0274,0.0274,0,0.023,0.0229,0.0228,0.0187,0.0187,0.0186,0.0186,0.0146,0.0146,0.0145,0,0,0,0,0,0,0,0,0,0,0,0,0,0.0242,0.0243,0.0274,0.0274,0.0274,0.023,0.0229,0.0228,0.0187,0.0186,0.0186,0.0186,0.0147,0.0146,0.0145,0,0,0,0,0,0,0,0,0,0,0,0,0,0.0231,0.0243,0.0274,0.0249,0.0247,0.023,0.0229,0.0228,0.0187,0.0186,0.0186,0.0186,0.0147,0.0146,0.0145,0.0147,0,0,0.0141,0.0141,0,0,0,0,0,0,0,0,0.0232,0.0232,0.0253,0.0251,0.0248,0.0215,0.0203,0.0202,0.0187,0.0207,0.0186,0.0185,0.0172,0.0168,0.0158,0.0146,0.0144,0.0141,0.014,0.014,0.014,0,0,0,0,0,0,0,0.0233,0.0233,0.0254,0.0253,0.025,0.0212,0.0211,0.0202,0.0191,0.0206,0.0203,0.0202,0.017,0.0159,0.0157,0.0143,0.0141,0.014,0.014,0.0139,0.0196,0.0199,0,0,0,0,0,0,0.0247,0.0235,0.0256,0.0253,0.0241,0.0214,0.0212,0.0225,0.0191,0.0186,0.0202,0.02,0.0161,0.0158,0.0155,0.0204,0.014,0.0139,0.0138,0.0194,0.0197,0.0199,0,0,0,0,0,0,0.0247,0.025,0.0258,0.0243,0.0242,0.0216,0.023,0.0224,0.0228,0.0189,0.0183,0.0214,0.0161,0.0157,0.0152,0.02,0.0138,0.0137,0.0192,0.0195,0.0198,0.0271,0,0,0,0,0,0,0.0247,0.0251,0.0261,0.0245,0.0243,0.0269,0.023,0.0223,0.0228,0.0225,0.0198,0.0192,0.016,0.0154,0.0151,0.0198,0.0137,0.0189,0.0193,0.0197,0.0266,0.0277,0.0286,0,0,0,0,0,0.0246,0.0257,0.0263,0.0265,0.0261,0.0271,0.0267,0.0243,0.023,0.0243,0.0212,0.0194,0.018,0.0154,0.015,0.0198,0.0187,0.0192,0.0197,0.0262,0.0274,0.0285,0,0,0,0,0,0,0.0238,0.0254,0.0259,0.0273,0.0286,0.0265,0.0265,0.026,0.0246,0.0243,0.0202,0.0195,0.0215,0.0199,0.0172,0.0231,0.0189,0.0194,0.024,0.0252,0.0262,0.0254,0.0136,0,0,0,0,0,0.0247,0.0266,0.0278,0.0291,0.0301,0.0292,0.0291,0.0289,0.0275,0.0268,0.0254,0.024,0.0232,0.0233,0.0225,0.0247,0.0231,0.0284,0.0294,0.0302,0.0297,0.0313,0.0323,0.0216,0.0216,0.0215,0,0,0.0243,0.0257,0.0265,0.0292,0.0293,0.0315,0.029,0.0306,0.0324,0.0267,0.0285,0.0271,0.0245,0.0266,0.0277,0.0258,0.0328,0.0309,0.0315,0.0305,0.0319,0.0329,0.0339,0.0219,0.0218,0.0218,0,0,0.0243,0.0268,0.0283,0.0305,0.0329,0.0337,0.0354,0.0364,0.0368,0.0387,0.0352,0.0361,0.0359,0.0347,0.0337,0.0401,0.0377,0.042,0.0463,0.0481,0.0489,0.0496,0.0497,0.0504,0.0428,0.0428,0.0429,0,0.0237,0.0266,0.0288,0.0313,0.0333,0.0356,0.0384,0.0396,0.0406,0.0411,0.0408,0.0405,0.0395,0.0399,0.0426,0.0423,0.042,0.0415,0.0491,0.0498,0.0504,0.0503,0.0509,0.0433,0.0432,0.0432,0.0431,0,0.0252,0.028,0.0293,0.0342,0.0372,0.0403,0.0438,0.047,0.049,0.0493,0.0517,0.05,0.0493,0.0514,0.0485,0.0531,0.0512,0.0497,0.0455,0.0519,0.0515,0.052,0.0438,0.0437,0.0436,0.0435,0,0,0.0229,0.0291,0.0297,0.033,0.0396,0.0425,0.0473,0.0516,0.0536,0.0566,0.0582,0.0594,0.0586,0.0577,0.0561,0.0583,0.0635,0.0567,0.0566,0.0557,0.0666,0.0572,0.0568,0.0636,0.0637,0.0638,0.0648,0,0.0237,0.0283,0.032,0.0383,0.0418,0.047,0.0512,0.0556,0.0583,0.0609,0.0611,0.062,0.061,0.0612,0.0636,0.0625,0.0651,0.0632,0.0614,0.0613,0.0513,0.0571,0.0642,0.0652,0.0653,0.0654,0.0654,0,0.0245,0.028,0.0332,0.0413,0.0434,0.0482,0.056,0.0599,0.0637,0.0651,0.0663,0.0655,0.0678,0.0669,0.0691,0.068,0.0684,0.0683,0.0683,0.0567,0.0528,0.0575,0.0663,0.0662,0.0661,0.0661,0.066,0,0.0224,0.0295,0.0341,0.0369,0.0458,0.0501,0.0557,0.0611,0.0642,0.0674,0.0686,0.07,0.0706,0.0723,0.0708,0.0713,0.0723,0.0727,0.0645,0.0638,0.0684,0.0676,0.0756,0.0756,0.0756,0.0756,0.0756,0,0.0225,0.0264,0.0338,0.0365,0.0444,0.0503,0.0574,0.062,0.0663,0.069,0.0704,0.0707,0.0725,0.072,0.0721,0.068,0.0732,0.0654,0.0637,0.0717,0.0713,0.0688,0.068,0.0757,0.0757,0.0757,0.0756,0,0.0204,0.0243,0.0308,0.0399,0.0439,0.05,0.0605,0.0639,0.0675,0.0708,0.0718,0.0726,0.0711,0.07,0.071,0.0678,0.066,0.0634,0.0704,0.0691,0.0567,0.0563,0.0565,0.0562,0.0559,0.0557,0.0555,0,0.0198,0.0221,0.033,0.0388,0.0441,0.0531,0.0589,0.065,0.0673,0.0706,0.0709,0.0701,0.0695,0.0626,0.0626,0.0597,0.0587,0.0576,0.0594,0.0565,0.055,0.055,0.0549,0.055,0.055,0.0549,0.0548,0,0.0196,0.0231,0.0294,0.0403,0.0484,0.0553,0.0628,0.0636,0.0681,0.0709,0.0679,0.0647,0.0613,0.0583,0.054,0.0529,0.0584,0.0548,0.0555,0.0572,0.0548,0.0535,0.0538,0.0539,0.054,0.0541,0.0542,0,0.0206,0.0256,0.0338,0.0443,0.052,0.0558,0.0597,0.0618,0.064,0.0653,0.064,0.0617,0.0617,0.0546,0.0518,0.0476,0.0481,0.0475,0.0485,0.0496,0.046,0.0419,0.036,0,0,0,0,0,0.0225,0.0291,0.0378,0.0479,0.0532,0.0571,0.0618,0.0636,0.0656,0.062,0.0625,0.0586,0.052,0.0507,0.0448,0.0484,0.0485,0.0413,0.0486,0.0487,0.0498,0.0458,0,0,0,0,0,0,0.0249,0.0332,0.0384,0.0469,0.052,0.057,0.0586,0.0597,0.0572,0.0585,0.055,0.0551,0.0495,0.0546,0.0439,0.0431,0.0463,0.0397,0.0395,0.0481,0.0491,0.05,0.0462,0,0,0,0,0]},{"header":{"parameterUnit":"m.s-1","parameterCategory":2,"la1":30.2991,"la2":30.254,"lo1":-89.0895,"lo2":-89.0444,"dy":0.0017,"dx":0.0017,"nx":28,"ny":28,"refTime":"2024-05-13T09:00:00:Z","depth":"4","parameterNumber":3,"parameterNumberName":"V-component_of_CURRENTS"},"data":[0,0,0,0,0,0,0,0,0,0,0,0,0,0,0,0,0,0,0,0,0,0,0,0,0,0,0,0,0,0,0,0,0,0,0,0,0,0,0,0,0,0,0,0,0,0,0,0,0,0,0,0,0,0,0,0,0,0,0.0522,0.0522,0,0.053,0.053,0.053,0.0552,0.0552,0.0552,0.0553,0.0582,0.0583,0.0583,0,0,0,0,0,0,0,0,0,0,0,0,0,0.0512,0.0513,0.0522,0.0522,0.0522,0.053,0.053,0.053,0.0552,0.0552,0.0552,0.0553,0.0582,0.0583,0.0583,0,0,0,0,0,0,0,0,0,0,0,0,0,0.0519,0.0513,0.0522,0.0533,0.0534,0.053,0.053,0.0531,0.0552,0.0552,0.0553,0.0553,0.0582,0.0583,0.0584,0.0578,0,0,0.0586,0.0586,0,0,0,0,0,0,0,0,0.0519,0.052,0.0531,0.0532,0.0533,0.0539,0.0538,0.0547,0.0551,0.0546,0.0553,0.0553,0.0569,0.0571,0.0573,0.058,0.0581,0.0586,0.0586,0.0587,0.0587,0,0,0,0,0,0,0,0.0519,0.052,0.0527,0.0531,0.0532,0.0532,0.0534,0.054,0.0556,0.0547,0.0548,0.0546,0.057,0.0572,0.0574,0.0581,0.0586,0.0587,0.0587,0.0587,0.0625,0.0626,0,0,0,0,0,0,0.0515,0.0519,0.0527,0.0527,0.0525,0.0532,0.0534,0.0538,0.0556,0.0558,0.0546,0.0547,0.057,0.0573,0.0575,0.0602,0.0587,0.0587,0.0588,0.0625,0.0625,0.0626,0,0,0,0,0,0,0.0515,0.0516,0.0526,0.0522,0.0523,0.0532,0.0536,0.0538,0.0549,0.0555,0.0558,0.0556,0.0571,0.0574,0.0598,0.0602,0.0588,0.0588,0.0624,0.0625,0.0626,0.0637,0,0,0,0,0,0,0.0515,0.0516,0.0527,0.0522,0.0523,0.0534,0.0535,0.0537,0.0546,0.0548,0.0564,0.0567,0.0572,0.0597,0.0599,0.0603,0.0589,0.0623,0.0625,0.0626,0.0636,0.0638,0.064,0,0,0,0,0,0.0514,0.0527,0.0527,0.0529,0.0535,0.0534,0.0536,0.0544,0.0546,0.0555,0.0571,0.0567,0.0605,0.0598,0.06,0.0605,0.0623,0.0624,0.0625,0.0635,0.0637,0.064,0,0,0,0,0,0,0.053,0.053,0.053,0.0543,0.0542,0.0538,0.0548,0.0547,0.0565,0.057,0.0577,0.0582,0.0605,0.0604,0.0597,0.062,0.0612,0.0613,0.0618,0.062,0.0622,0.0607,0.059,0,0,0,0,0,0.0536,0.0547,0.0541,0.0552,0.0552,0.055,0.0554,0.0554,0.0562,0.0571,0.058,0.0593,0.0609,0.0616,0.0629,0.0639,0.0625,0.0643,0.0645,0.0647,0.0636,0.0624,0.0624,0.063,0.063,0.063,0,0,0.0544,0.0546,0.0552,0.0557,0.0557,0.0559,0.0555,0.0559,0.0562,0.0571,0.0589,0.0604,0.0616,0.0634,0.0643,0.0634,0.064,0.0649,0.065,0.0638,0.0626,0.0625,0.0624,0.0631,0.0631,0.0631,0,0,0.0561,0.0567,0.058,0.058,0.058,0.0573,0.0575,0.0573,0.0578,0.0591,0.0603,0.0618,0.0638,0.0645,0.0652,0.067,0.0655,0.0679,0.0671,0.066,0.0659,0.0658,0.0644,0.0641,0.0674,0.0674,0.0674,0,0.0572,0.0583,0.0583,0.0592,0.0588,0.058,0.0581,0.0585,0.0592,0.0592,0.06,0.0628,0.0639,0.0655,0.0664,0.0673,0.0665,0.066,0.0661,0.066,0.0658,0.0644,0.0641,0.0675,0.0675,0.0675,0.0675,0,0.0591,0.0602,0.0608,0.0614,0.061,0.061,0.0602,0.0603,0.0603,0.0603,0.062,0.0638,0.0648,0.0659,0.0668,0.0669,0.0666,0.0669,0.0651,0.0658,0.0643,0.064,0.0676,0.0676,0.0675,0.0675,0,0,0.0605,0.0619,0.0622,0.0617,0.0617,0.0607,0.0611,0.0603,0.0598,0.0613,0.0612,0.0641,0.0645,0.0652,0.0666,0.0657,0.0645,0.0658,0.0657,0.0637,0.0619,0.0595,0.0589,0.065,0.0649,0.0649,0.0615,0,0.0617,0.0633,0.0634,0.0632,0.063,0.0615,0.0612,0.0605,0.0604,0.0605,0.0618,0.0632,0.0645,0.0653,0.0647,0.0654,0.0637,0.0654,0.0621,0.062,0.0592,0.0584,0.0647,0.0612,0.0611,0.0611,0.061,0,0.063,0.0635,0.0643,0.0623,0.0619,0.0614,0.0586,0.0584,0.0585,0.0588,0.0601,0.0616,0.0625,0.0629,0.0623,0.0636,0.0621,0.0617,0.0616,0.0582,0.0589,0.0604,0.0604,0.0604,0.0605,0.0605,0.0606,0,0.0626,0.0631,0.0632,0.063,0.0617,0.0604,0.0588,0.058,0.0573,0.0581,0.0584,0.0598,0.0608,0.0599,0.0604,0.061,0.0586,0.0593,0.0551,0.0549,0.0576,0.0578,0.0561,0.0561,0.0561,0.0561,0.0561,0,0.0628,0.0626,0.0629,0.0628,0.0603,0.0595,0.0571,0.0561,0.056,0.0558,0.0578,0.0583,0.06,0.0598,0.0592,0.0564,0.0575,0.0538,0.0534,0.0584,0.0587,0.0574,0.0576,0.056,0.056,0.0561,0.0561,0,0.0622,0.0634,0.0625,0.0613,0.0604,0.0582,0.0554,0.054,0.0546,0.0545,0.0552,0.057,0.057,0.0577,0.0563,0.0546,0.0525,0.0506,0.0555,0.0557,0.0495,0.0499,0.0449,0.0448,0.0447,0.0446,0.0445,0,0.062,0.0622,0.0612,0.0591,0.0582,0.0554,0.0534,0.0532,0.0527,0.0537,0.0539,0.0546,0.0556,0.0516,0.0525,0.0499,0.0492,0.047,0.0479,0.048,0.0482,0.0487,0.0491,0.0443,0.0443,0.0443,0.0442,0,0.0603,0.0608,0.0595,0.0559,0.0533,0.0513,0.0493,0.0495,0.0502,0.0516,0.0515,0.0508,0.0502,0.0498,0.0478,0.0462,0.0483,0.0459,0.0461,0.0469,0.0473,0.0477,0.0482,0.0439,0.0439,0.044,0.044,0,0.0579,0.0556,0.054,0.0493,0.048,0.0469,0.0468,0.0459,0.0459,0.0488,0.0487,0.0494,0.0507,0.0477,0.0464,0.0445,0.0435,0.0415,0.0419,0.0423,0.0431,0.0433,0.0371,0,0,0,0,0,0.0548,0.0503,0.0463,0.0421,0.0423,0.0418,0.0432,0.0443,0.0474,0.0463,0.0474,0.0469,0.0448,0.0449,0.0422,0.0444,0.0434,0.0409,0.0414,0.0419,0.0423,0.0434,0,0,0,0,0,0,0.0513,0.0481,0.0442,0.0383,0.0356,0.0356,0.0377,0.0404,0.0403,0.0434,0.0428,0.0436,0.0424,0.0457,0.0411,0.0409,0.0401,0.041,0.0409,0.0416,0.042,0.0423,0.0436,0,0,0,0,0]}]]